{"data":{"norad_id":64577,"epoch":"2026-05-25T05:21:55.927008Z","epoch_age_seconds":59169,"freshness":"FRESH","line1":"1 64577U 25135BB  26145.22356397  .00001307  00000+0  20363-3 0  9997","line2":"2 64577  97.7716 251.1609 0022005  59.1554 301.1816 14.74405831 49886","mean_motion":14.74405831,"eccentricity":0.0022005,"inclination_deg":97.7716,"raan_deg":251.1609,"arg_perigee_deg":59.1554,"mean_anomaly_deg":301.1816,"bstar":0.00020363,"rev_number":4988,"period_min":97.666461277038,"perigee_km":631.57911819949,"apogee_km":662.49691344412,"semimajor_km":7025.1750158218,"source":"CELESTRAK","updated_at":"2026-05-25T13:38:04.623092Z"}}